User: anonymous   Login
Location: Unspecified
(0.0000°N, 0.0000°E)
Time: 17:03:23
(UTC+00:00)
Language:

Kosmos-2195 - Orbit

View from above orbital plane
View from above orbital plane
View from above satellite
View from above satellite

Ground track
Ground track

The orbit data is extracted from the following two-line orbital elements,

1 22006U 92036A   18174.74663816 +.00000038 +00000-0 +23243-4 0  9991
2 22006 082.9353 060.4604 0038161 124.9000 268.1995 13.74925601303483
Epoch (UTC): 23 June 2018 17:55:09
Eccentricity: 0.0038161
inclination: 82.9353°
perigee height: 954 km
apogee height: 1010 km
right ascension of ascending node: 60.4604°
argument of perigee: 124.9000°
revolutions per day: 13.74925601
mean anomaly at epoch: 268.1995°
orbit number at epoch: 30348

The dashed part of the orbit path shows where the satellite is in the earth's shadow,  

DLR